Home   Weather   Egersund   Past weeks

Flag for Norway Past Weather in Egersund, Norway — Yesterday and Last 2 Weeks

Now
49 °F

Cool.


Feels Like: 49 °F
Forecast: 45 / 59 °F
Wind: No wind

Location: Ualand-Bjuland

Current Time: Oct 1, 2016 at 12:33:45 PM

Latest Report: Oct 1, 2016 at 11:00 AM


Visibility: N/A

Pressure: 29.78 "Hg

Humidity: 98%

Dew Point: 48 °F

Location of EgersundLocation

Past Weather in Egersund — Graph

°F

Egersund Temperature Yesterday

Maximum temperature yesterday: 55 °F (at 3:00 PM)
Minimum temperature yesterday: 42 °F (at 5:00 AM)
Average temperature yesterday: 48 °F

High & Low Weather Summary for the Past Weeks

 TemperatureHumidityPressure
High71 °F (Sep 16, 11:00 AM)100% (Sep 18, 4:00 AM)30.26 "Hg (Sep 18, 4:00 AM)
Low41 °F (Sep 20, 6:00 AM)55% (Sep 25, 3:00 PM)29.23 "Hg (Sep 29, 4:00 PM)
Average55 °F87%29.99 "Hg
* Reported Sep 16 11:00 AM — Oct 1 11:00 AM, Egersund, Weather by CustomWeather, © 2016

Note: Actual official high and low records may vary slightly from our data, if they occured in-between our weather recording intervals... More about our weather records

Advertising

Egersund Weather History for the Previous 24 Hours

Scroll right to see more
 ConditionsComfort  
Time TempWeatherWind HumidityBarometerVisibility
11:00 AM
Sat, Oct 1
49 °FCool.No wind98%29.78 "HgN/A
10:00 AM47 °FCool.1 mph99%29.77 "HgN/A
9:00 AM46 °FCool.1 mph100%29.75 "HgN/A
8:00 AM44 °FFog.2 mph100%29.73 "Hg9 mi
7:00 AM43 °FQuite cool.1 mph99%29.72 "HgN/A
6:00 AM43 °FQuite cool.1 mph99%29.70 "HgN/A
5:00 AM43 °FQuite cool.1 mph98%29.70 "HgN/A
4:00 AM44 °FQuite cool.1 mph98%29.69 "HgN/A
3:00 AM46 °FCool.1 mph97%29.68 "HgN/A
2:00 AM46 °FCool.1 mph98%29.67 "HgN/A
1:00 AM47 °FCool.1 mph98%29.66 "HgN/A
11:00 PM
Fri, Sep 30
47 °FCool.1 mph96%29.64 "HgN/A
10:00 PM47 °FCool.2 mph91%29.63 "HgN/A
8:00 PM45 °FSprinkles. Overcast.1 mph93%29.60 "Hg25 mi
6:00 PM51 °FCool.2 mph78%29.56 "HgN/A
5:00 PM53 °FCool.3 mph73%29.56 "HgN/A
4:00 PM51 °FCool.3 mph78%29.57 "HgN/A
3:00 PM55 °FCool.3 mph62%29.56 "HgN/A
2:00 PM54 °FOvercast.6 mph61%29.56 "Hg47 mi
1:00 PM54 °FCool.5 mph63%29.56 "HgN/A
12:00 PM53 °FCool.2 mph71%29.56 "HgN/A
Weather by CustomWeather, © 2016

See weather overviewHow to use our weather pages